DW6963 Weather Reports


time (UTC)temp
C
wind
direction
speed
KPH
gust
KPH
rain 1hr
cm
rain 24hr
cm
rain mn
cm
humidity
%
barometer
mb
20260508200411 19 0 0.0 0.0 0.00 0.00 0.00 41 1010.5
20260508195911 19 0 0.0 0.0 0.00 0.00 0.00 40 1010.6
20260508195411 20 0 0.0 0.0 0.00 0.00 0.00 40 1010.6
20260508194911 20 0 0.0 0.0 0.00 0.00 0.00 40 1010.5
20260508194411 20 0 0.0 0.0 0.00 0.00 0.00 42 1010.5
20260508193911 20 0 0.0 0.0 0.00 0.00 0.00 41 1010.7
20260508193411 20 0 0.0 0.0 0.00 0.00 0.00 40 1010.7
20260508192411 20 0 0.0 0.0 0.00 0.00 0.00 43 1010.8
20260508191911 20 0 0.0 0.0 0.00 0.00 0.00 41 1010.8
20260508191411 20 0 0.0 0.0 0.00 0.00 0.00 39 1011.0
20260508190911 19 0 0.0 0.0 0.00 0.00 0.00 41 1011.3
20260508190411 19 0 0.0 0.0 0.00 0.00 0.00 42 1011.3
20260508185911 20 0 0.0 0.0 0.00 0.00 0.00 42 1011.5
20260508185411 20 0 0.0 0.0 0.00 0.00 0.00 45 1011.4
20260508184411 20 0 0.0 0.0 0.00 0.00 0.00 44 1011.6
20260508183911 20 0 0.0 0.0 0.00 0.00 0.00 43 1011.7
20260508183411 20 0 0.0 0.0 0.00 0.00 0.00 45 1011.8
20260508182911 19 0 0.0 0.0 0.00 0.00 0.00 46 1011.8
20260508182411 19 0 0.0 0.0 0.00 0.00 0.00 46 1011.9
20260508181411 18 0 0.0 0.0 0.00 0.00 0.00 48 1012.0
20260508180911 18 0 0.0 0.0 0.00 0.00 0.00 46 1012.0
20260508180411 18 0 0.0 0.0 0.00 0.00 0.00 45 1011.9
20260508175910 18 0 0.0 0.0 0.00 0.00 0.00 44 1012.2
20260508175411 18 0 0.0 0.0 0.00 0.00 0.00 46 1012.3
20260508174910 18 0 0.0 0.0 0.00 0.00 0.00 45 1012.4
20260508174411 18 0 0.0 0.0 0.00 0.00 0.00 45 1012.5
20260508173911 18 0 0.0 0.0 0.00 0.00 0.00 46 1012.6
20260508172910 18 0 0.0 0.0 0.00 0.00 0.00 47 1012.7
20260508171910 18 0 0.0 0.0 0.00 0.00 0.00 49 1012.9
20260508171411 18 0 0.0 0.0 0.00 0.00 0.00 46 1013.0
20260508170411 18 0 0.0 0.0 0.00 0.00 0.00 47 1013.2
20260508165911 18 0 0.0 0.0 0.00 0.00 0.00 46 1013.2
20260508165411 18 0 0.0 0.0 0.00 0.00 0.00 50 1013.3
20260508164910 18 0 0.0 0.0 0.00 0.00 0.00 50 1013.4
20260508164410 18 0 0.0 0.0 0.00 0.00 0.00 51 1013.3
20260508163911 18 0 0.0 0.0 0.00 0.00 0.00 51 1013.3
20260508163411 17 0 0.0 0.0 0.00 0.00 0.00 49 1013.5
20260508162911 17 0 0.0 0.0 0.00 0.00 0.00 48 1013.5
20260508162410 17 0 0.0 0.0 0.00 0.00 0.00 51 1013.6
20260508161411 17 0 0.0 0.0 0.00 0.00 0.00 50 1013.8
20260508160910 17 0 0.0 0.0 0.00 0.00 0.00 49 1013.8
20260508160411 17 0 0.0 0.0 0.00 0.00 0.00 51 1013.9
20260508155911 17 0 0.0 0.0 0.00 0.00 0.00 50 1013.9
20260508155411 17 0 0.0 0.0 0.00 0.00 0.00 53 1013.9
20260508154910 17 0 0.0 0.0 0.00 0.00 0.00 53 1014.0
20260508153911 16 0 0.0 0.0 0.00 0.00 0.00 51 1014.0
20260508153411 16 0 0.0 0.0 0.00 0.00 0.00 51 1014.1
20260508152911 16 0 0.0 0.0 0.00 0.00 0.00 53 1014.1
20260508152411 16 0 0.0 0.0 0.00 0.00 0.00 52 1014.0
20260508151911 16 0 0.0 0.0 0.00 0.00 0.00 56 1014.2
20260508151411 16 0 0.0 0.0 0.00 0.00 0.00 53 1014.2
20260508150911 16 0 0.0 0.0 0.00 0.00 0.00 54 1014.3
20260508145911 15 0 0.0 0.0 0.00 0.00 0.00 58 1014.4
20260508145411 15 0 0.0 0.0 0.00 0.00 0.00 57 1014.5
20260508144911 15 0 0.0 0.0 0.00 0.00 0.00 55 1014.4
20260508144411 15 0 0.0 0.0 0.00 0.00 0.00 55 1014.5
20260508143911 15 0 0.0 0.0 0.00 0.00 0.00 55 1014.6
20260508143411 14 0 0.0 0.0 0.00 0.00 0.00 57 1014.6
20260508142411 14 0 0.0 0.0 0.00 0.00 0.00 56 1014.7
20260508141911 13 0 0.0 0.0 0.00 0.00 0.00 56 1014.7
20260508141411 13 0 0.0 0.0 0.00 0.00 0.00 57 1014.7
20260508140911 13 0 0.0 0.0 0.00 0.00 0.00 57 1014.7
20260508140411 13 0 0.0 0.0 0.00 0.00 0.00 56 1014.8
20260508135411 13 0 0.0 0.0 0.00 0.00 0.00 58 1014.7
20260508134911 13 0 0.0 0.0 0.00 0.00 0.00 55 1014.7
20260508134411 13 0 0.0 0.0 0.00 0.00 0.00 58 1014.8
20260508133911 13 0 0.0 0.0 0.00 0.00 0.00 57 1014.7
20260508133411 12 0 0.0 0.0 0.00 0.00 0.00 57 1014.8
20260508132912 12 0 0.0 0.0 0.00 0.00 0.00 57 1014.7
20260508132411 12 0 0.0 0.0 0.00 0.00 0.00 58 1014.8
20260508131911 12 0 0.0 0.0 0.00 0.00 0.00 61 1014.7
20260508131411 12 0 0.0 0.0 0.00 0.00 0.00 61 1014.7
20260508130911 11 0 0.0 0.0 0.00 0.00 0.00 61 1014.7
20260508125911 11 0 0.0 0.0 0.00 0.00 0.00 65 1014.8
20260508124411 10 0 0.0 0.0 0.00 0.00 0.00 65 1014.7
20260508123911 10 0 0.0 0.0 0.00 0.00 0.00 66 1014.8
20260508123411 10 0 0.0 0.0 0.00 0.00 0.00 66 1014.8
20260508121911 10 0 0.0 0.0 0.00 0.00 0.00 67 1014.7
20260508121411 10 0 0.0 0.0 0.00 0.00 0.00 67 1014.7
20260508120911 10 0 0.0 0.0 0.00 0.00 0.00 67 1014.6
20260508115911 9 0 0.0 0.0 0.00 0.00 0.00 68 1014.5
20260508115411 9 0 0.0 0.0 0.00 0.00 0.00 68 1014.6
20260508114411 8 0 0.0 0.0 0.00 0.00 0.00 69 1014.5
20260508113911 8 0 0.0 0.0 0.00 0.00 0.00 69 1014.5
20260508113411 8 0 0.0 0.0 0.00 0.00 0.00 69 1014.5
20260508112911 8 0 0.0 0.0 0.00 0.00 0.00 69 1014.4
20260508112411 8 0 0.0 0.0 0.00 0.00 0.00 70 1014.4
20260508111911 8 0 0.0 0.0 0.00 0.00 0.00 70 1014.3
20260508111411 8 0 0.0 0.0 0.00 0.00 0.00 71 1014.2
20260508110411 8 0 0.0 0.0 0.00 0.00 0.00 72 1014.1
20260508105910 7 0 0.0 0.0 0.00 0.00 0.00 71 1014.1
20260508105411 7 0 0.0 0.0 0.00 0.00 0.00 72 1014.2
20260508104411 7 0 0.0 0.0 0.00 0.00 0.00 73 1014.1
20260508103911 7 0 0.0 0.0 0.00 0.00 0.00 74 1014.0
20260508103411 7 0 0.0 0.0 0.00 0.00 0.00 75 1014.0
20260508102911 6 0 0.0 0.0 0.00 0.00 0.00 76 1014.1
20260508100911 6 0 0.0 0.0 0.00 0.00 0.00 75 1014.1
20260508100411 6 0 0.0 0.0 0.00 0.00 0.00 75 1014.1
20260508095911 6 0 0.0 0.0 0.00 0.00 0.00 75 1014.1
20260508095411 6 0 0.0 0.0 0.00 0.00 0.00 75 1014.1
20260508094911 6 0 0.0 0.0 0.00 0.00 0.00 76 1014.2
20260508094411 6 0 0.0 0.0 0.00 0.00 0.00 76 1014.1
20260508093411 6 0 0.0 0.0 0.00 0.00 0.00 75 1014.1
20260508092411 6 0 0.0 0.0 0.00 0.00 0.00 74 1014.2
20260508091411 6 0 0.0 0.0 0.00 0.00 0.00 75 1014.2
20260508090911 6 0 0.0 0.0 0.00 0.00 0.00 75 1014.2
20260508090411 6 0 0.0 0.0 0.00 0.00 0.00 75 1014.1
20260508085911 6 0 0.0 0.0 0.00 0.00 0.00 75 1014.1
20260508085411 6 0 0.0 0.0 0.00 0.00 0.00 74 1014.2
20260508084911 6 0 0.0 0.0 0.00 0.00 0.00 74 1014.1
20260508084411 6 0 0.0 0.0 0.00 0.00 0.00 73 1014.2
20260508083911 6 0 0.0 0.0 0.00 0.00 0.00 73 1014.0
20260508083411 6 0 0.0 0.0 0.00 0.00 0.00 72 1014.0
20260508082911 6 0 0.0 0.0 0.00 0.00 0.00 72 1014.0
20260508082411 6 0 0.0 0.0 0.00 0.00 0.00 71 1014.0
20260508081911 6 0 0.0 0.0 0.00 0.00 0.00 70 1014.1
20260508081411 6 0 0.0 0.0 0.00 0.00 0.00 70 1014.0
20260508080911 7 0 0.0 0.0 0.00 0.00 0.00 69 1014.0
20260508075411 7 0 0.0 0.0 0.00 0.00 0.00 67 1014.0
20260508074911 7 0 0.0 0.0 0.00 0.00 0.00 67 1014.1
20260508073911 7 0 0.0 0.0 0.00 0.00 0.00 66 1014.0
20260508073411 7 0 0.0 0.0 0.00 0.00 0.00 66 1014.0
20260508072911 7 0 0.0 0.0 0.00 0.00 0.00 66 1013.9
20260508072411 7 0 0.0 0.0 0.00 0.00 0.00 66 1013.9
20260508071911 7 0 0.0 0.0 0.00 0.00 0.00 66 1014.0
20260508071411 7 0 0.0 0.0 0.00 0.00 0.00 66 1014.0
20260508070411 7 0 0.0 0.0 0.00 0.00 0.00 66 1014.3
20260508065912 7 0 0.0 0.0 0.00 0.00 0.00 66 1014.3
20260508065411 8 0 0.0 0.0 0.00 0.00 0.00 66 1014.4
20260508064911 8 0 0.0 0.0 0.00 0.00 0.00 66 1014.4
20260508064411 8 0 0.0 0.0 0.00 0.00 0.00 66 1014.4
20260508063911 8 0 0.0 0.0 0.00 0.00 0.00 66 1014.4
20260508063411 8 0 0.0 0.0 0.00 0.00 0.00 66 1014.5
20260508062911 8 0 0.0 0.0 0.00 0.00 0.00 66 1014.5
20260508062411 8 0 0.0 0.0 0.00 0.00 0.00 66 1014.6
20260508061911 8 0 0.0 0.0 0.00 0.00 0.00 66 1014.5
20260508061411 8 0 0.0 0.0 0.00 0.00 0.00 67 1014.6
20260508060411 8 0 0.0 0.0 0.00 0.00 0.00 67 1014.6
20260508055411 8 0 0.0 0.0 0.00 0.00 0.00 67 1014.6
20260508054911 8 0 0.0 0.0 0.00 0.00 0.00 66 1014.6
20260508054411 8 0 0.0 0.0 0.00 0.00 0.00 67 1014.6
20260508053911 8 0 0.0 0.0 0.00 0.00 0.00 67 1014.5
20260508052411 7 0 0.0 0.0 0.00 0.00 0.00 68 1014.5
20260508051411 7 0 0.0 0.0 0.00 0.00 0.00 70 1014.6
20260508050911 7 0 0.0 0.0 0.00 0.00 0.00 71 1014.5
20260508050411 7 0 0.0 0.0 0.00 0.00 0.00 72 1014.6
20260508045911 7 0 0.0 0.0 0.00 0.00 0.00 73 1014.5
20260508045411 7 0 0.0 0.0 0.00 0.00 0.00 74 1014.6
20260508044911 6 0 0.0 0.0 0.00 0.00 0.00 74 1014.5
20260508044411 6 0 0.0 0.0 0.00 0.00 0.00 74 1014.6
20260508043911 6 0 0.0 0.0 0.00 0.00 0.00 75 1014.5
20260508043411 6 0 0.0 0.0 0.00 0.00 0.00 75 1014.5
20260508042411 6 0 0.0 0.0 0.00 0.00 0.00 76 1014.5
20260508041911 6 0 0.0 0.0 0.00 0.00 0.00 76 1014.4
20260508041411 6 0 0.0 0.0 0.00 0.00 0.00 76 1014.4
20260508040911 6 0 0.0 0.0 0.00 0.00 0.00 77 1014.5
20260508040414 6 0 0.0 0.0 0.00 0.00 0.00 78 1014.4
20260508035411 6 0 0.0 0.0 0.00 0.00 0.00 79 1014.5
20260508034911 6 0 0.0 0.0 0.00 0.00 0.00 79 1014.5
20260508034411 6 0 0.0 0.0 0.00 0.00 0.00 79 1014.4
20260508033911 6 0 0.0 0.0 0.00 0.00 0.00 79 1014.5
20260508033411 6 0 0.0 0.0 0.00 0.00 0.00 79 1014.5
20260508032911 6 0 0.0 0.0 0.00 0.00 0.00 79 1014.5
20260508032411 6 0 0.0 0.0 0.00 0.00 0.00 79 1014.5
20260508031911 6 0 0.0 0.0 0.00 0.00 0.00 79 1014.5
20260508031411 6 0 0.0 0.0 0.00 0.00 0.00 79 1014.4
20260508030911 6 0 0.0 0.0 0.00 0.00 0.00 78 1014.4
20260508030411 6 0 0.0 0.0 0.00 0.00 0.00 78 1014.4
20260508025911 6 0 0.0 0.0 0.00 0.00 0.00 77 1014.5
20260508025411 6 0 0.0 0.0 0.00 0.00 0.00 78 1014.4
20260508024912 6 0 0.0 0.0 0.00 0.00 0.00 78 1014.3
20260508023911 6 0 0.0 0.0 0.00 0.00 0.00 78 1014.2
20260508023411 6 0 0.0 0.0 0.00 0.00 0.00 77 1014.3
20260508022911 6 0 0.0 0.0 0.00 0.00 0.00 77 1014.4
20260508022411 6 0 0.0 0.0 0.00 0.00 0.00 77 1014.4
20260508021911 7 0 0.0 0.0 0.00 0.00 0.00 76 1014.4
20260508021411 7 0 0.0 0.0 0.00 0.00 0.00 76 1014.4
20260508020911 7 0 0.0 0.0 0.00 0.00 0.00 75 1014.4
20260508020411 7 0 0.0 0.0 0.00 0.00 0.00 75 1014.4
20260508015911 7 0 0.0 0.0 0.00 0.00 0.00 75 1014.4
20260508014911 7 0 0.0 0.0 0.00 0.00 0.00 72 1014.5
20260508014411 7 0 0.0 0.0 0.00 0.00 0.00 72 1014.4
20260508013911 7 0 0.0 0.0 0.00 0.00 0.00 72 1014.3
20260508013411 7 0 0.0 0.0 0.00 0.00 0.00 70 1014.3
20260508012411 8 0 0.0 0.0 0.00 0.00 0.00 68 1014.3
20260508010911 9 0 0.0 0.0 0.00 0.00 0.00 65 1014.2
20260508005412 10 0 0.0 0.0 0.00 0.00 0.00 63 1014.0
20260508004911 10 0 0.0 0.0 0.00 0.00 0.00 61 1014.0
20260508003911 11 0 0.0 0.0 0.00 0.00 0.00 58 1014.0
20260508003411 11 0 0.0 0.0 0.00 0.00 0.00 57 1014.0
20260508002911 12 0 0.0 0.0 0.00 0.00 0.00 56 1013.9
20260508002411 12 0 0.0 0.0 0.00 0.00 0.00 52 1013.9
20260508001911 12 0 0.0 0.0 0.00 0.00 0.00 51 1013.8
20260508001411 12 0 0.0 0.0 0.00 0.00 0.00 48 1013.8
20260508000412 13 0 0.0 0.0 0.00 0.00 0.00 47 1013.9
20260507235911 13 0 0.0 0.0 0.00 0.00 0.00 45 1014.0
20260507235411 13 0 0.0 0.0 0.00 0.00 0.00 45 1013.9
20260507234911 13 0 0.0 0.0 0.00 0.00 0.00 43 1013.9
20260507234411 13 0 0.0 0.0 0.00 0.00 0.00 43 1013.7
20260507233911 13 0 0.0 0.0 0.00 0.00 0.00 44 1013.6
20260507232911 13 0 0.0 0.0 0.00 0.00 0.00 43 1013.5
20260507232411 14 0 0.0 0.0 0.00 0.00 0.00 43 1013.6
20260507231912 14 0 0.0 0.0 0.00 0.00 0.00 41 1013.6
20260507231411 14 0 0.0 0.0 0.00 0.00 0.00 41 1013.7
20260507230411 14 0 0.0 0.0 0.00 0.00 0.00 40 1013.6
20260507225911 15 0 0.0 0.0 0.00 0.00 0.00 40 1013.7
20260507225411 15 0 0.0 0.0 0.00 0.00 0.00 40 1013.7
20260507224911 15 0 0.0 0.0 0.00 0.00 0.00 40 1013.6
20260507224411 15 0 0.0 0.0 0.00 0.00 0.00 41 1013.6
20260507223911 15 0 0.0 0.0 0.00 0.00 0.00 42 1013.7
20260507223411 15 0 0.0 0.0 0.00 0.00 0.00 42 1013.7
20260507222912 15 0 0.0 0.0 0.00 0.00 0.00 43 1013.8
20260507222411 15 0 0.0 0.0 0.00 0.00 0.00 40 1013.8
20260507221912 15 0 0.0 0.0 0.00 0.00 0.00 42 1013.9
20260507221411 15 0 0.0 0.0 0.00 0.00 0.00 45 1013.9
20260507220912 15 0 0.0 0.0 0.00 0.00 0.00 45 1013.9
20260507220411 15 0 0.0 0.0 0.00 0.00 0.00 42 1013.9
20260507215911 15 0 0.0 0.0 0.00 0.00 0.00 41 1013.9
20260507215411 15 0 0.0 0.0 0.00 0.00 0.00 41 1014.0
20260507214911 15 0 0.0 0.0 0.00 0.00 0.00 43 1014.1
20260507214411 15 0 0.0 0.0 0.00 0.00 0.00 42 1013.9
20260507213911 15 0 0.0 0.0 0.00 0.00 0.00 39 1014.0
20260507213411 15 0 0.0 0.0 0.00 0.00 0.00 42 1014.1
20260507212911 15 0 0.0 0.0 0.00 0.00 0.00 42 1013.9
20260507212411 15 0 0.0 0.0 0.00 0.00 0.00 44 1014.0
20260507211411 14 0 0.0 0.0 0.00 0.00 0.00 44 1013.9
20260507210911 14 0 0.0 0.0 0.00 0.00 0.00 43 1013.9
20260507210411 14 0 0.0 0.0 0.00 0.00 0.00 44 1013.9
20260507205411 14 0 0.0 0.0 0.00 0.00 0.00 42 1013.8
20260507204911 14 0 0.0 0.0 0.00 0.00 0.00 42 1013.8
20260507204412 15 0 0.0 0.0 0.00 0.00 0.00 44 1013.7
20260507203911 15 0 0.0 0.0 0.00 0.00 0.00 45 1013.7
20260507203412 15 0 0.0 0.0 0.00 0.00 0.00 45 1013.7
20260507202911 15 0 0.0 0.0 0.00 0.00 0.00 45 1013.7
20260507202411 15 0 0.0 0.0 0.00 0.00 0.00 42 1013.7
20260507201911 15 0 0.0 0.0 0.00 0.00 0.00 44 1013.6
20260507201411 15 0 0.0 0.0 0.00 0.00 0.00 46 1013.8
20260507200911 14 0 0.0 0.0 0.00 0.00 0.00 46 1013.8